W0BJ Weather Reports


time (UTC)temp
C
wind
direction
speed
KPH
gust
KPH
rain 1hr
cm
rain 24hr
cm
rain mn
cm
humidity
%
barometer
mb
20260504205318 26 194 1.6 8.0 0.00 0.00 0.00 48 1005.3
20260504205224 26 125 0.0 4.8 0.00 0.00 0.00 48 1005.4
20260504204224 26 243 4.8 16.1 0.00 0.00 0.00 49 1005.6
20260504203818 26 127 0.0 9.7 0.00 0.00 0.00 49 1005.6
20260504203223 26 216 3.2 4.8 0.00 0.00 0.00 49 1005.7
20260504202317 26 186 3.2 4.8 0.00 0.00 0.00 49 1005.8
20260504202223 26 172 1.6 9.7 0.00 0.00 0.00 49 1005.8
20260504201224 26 107 1.6 8.0 0.00 0.00 0.00 49 1005.8
20260504200818 26 207 0.0 4.8 0.00 0.00 0.00 51 1006.0
20260504200224 25 200 0.0 8.0 0.00 0.00 0.00 54 1006.0
20260504195319 25 197 0.0 0.0 0.00 0.00 0.00 53 1006.2
20260504195224 24 198 3.2 4.8 0.00 0.00 0.00 54 1006.2
20260504194224 24 216 1.6 14.5 0.00 0.00 0.00 54 1006.2
20260504193818 23 134 0.0 0.0 0.00 0.00 0.00 56 1006.4
20260504193223 23 177 1.6 1.6 0.00 0.00 0.00 56 1006.5
20260504192317 23 204 9.7 11.3 0.00 0.00 0.00 55 1006.6
20260504192223 23 214 11.3 14.5 0.00 0.00 0.00 56 1006.6
20260504191225 21 193 0.0 4.8 0.00 0.00 0.00 60 1006.2
20260504190818 21 223 4.8 12.9 0.00 0.00 0.00 61 1006.1
20260504190224 20 337 1.6 9.7 0.00 0.00 0.00 63 1005.9
20260504185318 19 123 11.3 16.1 0.00 0.00 0.00 62 1005.7
20260504185223 19 143 8.0 19.3 0.00 0.00 0.00 62 1005.9
20260504184223 20 106 3.2 12.9 0.00 0.00 0.00 60 1007.4
20260504183819 20 150 3.2 1.6 0.00 0.00 0.00 59 1007.6
20260504183225 20 233 0.0 11.3 0.00 0.00 0.00 57 1007.3
20260504182318 21 210 0.0 4.8 0.00 0.00 0.00 57 1007.7
20260504182224 21 216 1.6 3.2 0.00 0.00 0.00 57 1007.7
20260504181224 21 136 3.2 9.7 0.00 0.00 0.00 57 1007.5
20260504180818 21 167 1.6 8.0 0.00 0.00 0.00 57 1007.4
20260504180224 21 256 3.2 11.3 0.00 0.00 0.00 57 1007.3
20260504175317 20 185 0.0 0.0 0.00 0.00 0.00 58 1007.6
20260504175223 20 184 1.6 4.8 0.00 0.00 0.00 58 1007.7
20260504174223 20 141 0.0 0.0 0.00 0.00 0.00 58 1007.6
20260504173819 20 141 0.0 0.0 0.00 0.00 0.00 58 1007.7
20260504173225 20 270 0.0 3.2 0.00 0.00 0.00 60 1008.0
20260504172318 20 239 0.0 4.8 0.00 0.00 0.00 60 1008.0
20260504172224 19 239 0.0 0.0 0.00 0.00 0.00 61 1008.0
20260504171224 19 239 0.0 0.0 0.00 0.00 0.00 61 1008.1
20260504170818 18 239 3.2 8.0 0.00 0.00 0.00 61 1008.1
20260504170223 18 126 3.2 8.0 0.00 0.00 0.00 60 1008.0
20260504160224 18 78 0.0 9.7 0.00 0.00 0.00 56 1008.5
20260504150818 18 183 0.0 0.0 0.00 0.00 0.00 57 1009.5
20260504150224 18 184 3.2 9.7 0.00 0.00 0.00 55 1009.5
20260504141224 21 211 1.6 4.8 0.00 0.00 0.00 51 1009.6
20260504140817 21 196 1.6 1.6 0.00 0.00 0.00 50 1009.7
20260504140225 22 214 1.6 1.6 0.00 0.00 0.00 50 1009.6
20260504130817 20 237 0.0 1.6 0.00 0.00 0.00 58 1010.1
20260504130223 19 204 1.6 9.7 0.00 0.00 0.00 59 1010.3
20260504120223 16 270 3.2 4.8 0.00 0.00 0.00 66 1010.4
20260504110224 15 279 0.0 0.0 0.00 0.00 0.00 68 1010.3
20260504100224 16 258 0.0 0.0 0.00 0.00 0.00 61 1010.6
20260504081224 15 0 0.0 0.0 0.00 0.00 0.00 71 1010.6
20260504080825 15 0 0.0 0.0 0.00 0.00 0.00 71 1010.7
20260504080818 15 0 0.0 0.0 0.00 0.00 0.00 71 1010.7
20260504080223 16 0 0.0 0.0 0.00 0.00 0.00 70 1010.7
20260504070223 16 0 0.0 0.0 0.00 0.00 0.00 66 1010.7
20260504060223 18 0 0.0 0.0 0.00 0.00 0.00 57 1011.4
20260504050223 17 296 0.0 0.0 0.00 0.00 0.00 57 1010.4
20260504045318 17 296 0.0 0.0 0.00 0.00 0.00 57 1010.4
20260504045224 17 296 0.0 0.0 0.00 0.00 0.00 57 1010.4
20260504044224 18 296 0.0 0.0 0.00 0.00 0.00 55 1010.4
20260504043817 18 296 0.0 0.0 0.00 0.00 0.00 55 1010.7
20260504043223 18 296 0.0 0.0 0.00 0.00 0.00 56 1010.5
20260504042318 19 296 0.0 0.0 0.00 0.00 0.00 52 1011.0
20260504042224 19 296 0.0 1.6 0.00 0.00 0.00 51 1011.0
20260504041224 19 281 0.0 0.0 0.00 0.00 0.00 52 1011.1
20260504040818 19 281 0.0 0.0 0.00 0.00 0.00 53 1011.1
20260504040223 19 281 1.6 0.0 0.00 0.00 0.00 55 1011.4
20260504035319 20 285 0.0 0.0 0.00 0.00 0.00 52 1011.2
20260504035224 20 285 0.0 1.6 0.00 0.00 0.00 52 1011.3
20260504034224 20 247 1.6 1.6 0.00 0.00 0.00 49 1010.9
20260504033817 20 234 0.0 0.0 0.00 0.00 0.00 49 1011.2
20260504033223 20 234 0.0 0.0 0.00 0.00 0.00 49 1011.3
20260504032318 20 234 1.6 3.2 0.00 0.00 0.00 49 1011.5
20260504032224 20 230 1.6 3.2 0.00 0.00 0.00 48 1011.5
20260504031224 20 230 0.0 0.0 0.00 0.00 0.00 48 1011.6
20260504030817 20 230 0.0 0.0 0.00 0.00 0.00 48 1011.8
20260504030223 20 230 0.0 3.2 0.00 0.00 0.00 47 1011.7
20260504025318 21 230 4.8 8.0 0.00 0.00 0.00 47 1011.6
20260504025224 21 229 1.6 9.7 0.00 0.00 0.00 47 1011.5
20260504024224 21 227 3.2 8.0 0.00 0.00 0.00 47 1011.5
20260504023817 21 204 0.0 0.0 0.00 0.00 0.00 47 1011.5
20260504023223 21 204 0.0 0.0 0.00 0.00 0.00 47 1011.6
20260504022318 21 276 1.6 4.8 0.00 0.00 0.00 46 1011.5
20260504022224 21 276 0.0 3.2 0.00 0.00 0.00 46 1011.6
20260504021224 21 280 1.6 1.6 0.00 0.00 0.00 46 1011.5
20260504020817 21 280 0.0 0.0 0.00 0.00 0.00 46 1011.5
20260504020225 21 280 0.0 0.0 0.00 0.00 0.00 45 1011.4
20260504015318 21 280 0.0 0.0 0.00 0.00 0.00 45 1011.5
20260504015224 21 280 0.0 0.0 0.00 0.00 0.00 45 1011.5
20260504014224 21 284 0.0 3.2 0.00 0.00 0.00 48 1011.5
20260504013817 21 284 1.6 3.2 0.00 0.00 0.00 45 1011.5
20260504013223 22 284 0.0 0.0 0.00 0.00 0.00 44 1011.3
20260504012319 22 310 11.3 11.3 0.00 0.00 0.00 43 1011.3
20260504012225 22 264 4.8 12.9 0.00 0.00 0.00 43 1011.2
20260504011224 22 232 1.6 3.2 0.00 0.00 0.00 42 1010.9
20260504010818 22 233 0.0 0.0 0.00 0.00 0.00 42 1011.0
20260504010223 22 233 0.0 0.0 0.00 0.00 0.00 42 1010.8
20260504005410 22 233 0.0 0.0 0.00 0.00 0.00 42 1010.7
20260504005319 22 233 0.0 0.0 0.00 0.00 0.00 42 1010.7
20260504005225 22 233 0.0 0.0 0.00 0.00 0.00 42 1010.8
20260504004224 22 233 0.0 0.0 0.00 0.00 0.00 41 1010.9
20260504003818 22 233 0.0 0.0 0.00 0.00 0.00 40 1010.8
20260504003223 22 234 0.0 3.2 0.00 0.00 0.00 39 1010.9
20260504002319 23 234 4.8 8.0 0.00 0.00 0.00 39 1010.9
20260504002225 23 234 3.2 8.0 0.00 0.00 0.00 40 1010.9
20260504001224 23 234 0.0 0.0 0.00 0.00 0.00 39 1011.0
20260504000818 23 234 1.6 3.2 0.00 0.00 0.00 39 1010.9
20260504000223 23 223 1.6 4.8 0.00 0.00 0.00 39 1011.0
20260503235319 23 204 3.2 3.2 0.00 0.00 0.00 38 1011.1
20260503235225 23 202 3.2 8.0 0.00 0.00 0.00 38 1011.0
20260503234224 24 221 4.8 8.0 0.00 0.00 0.00 37 1011.2
20260503233818 24 219 8.0 9.7 0.00 0.00 0.00 38 1011.1
20260503233223 24 12 1.6 3.2 0.00 0.00 0.00 37 1011.1
20260503232318 24 193 1.6 3.2 0.00 0.00 0.00 35 1011.2
20260503232224 24 192 1.6 4.8 0.00 0.00 0.00 35 1011.3
20260503231224 25 328 1.6 11.3 0.00 0.00 0.00 35 1011.3
20260503230817 25 235 4.8 11.3 0.00 0.00 0.00 34 1011.4
20260503230223 25 307 3.2 4.8 0.00 0.00 0.00 33 1011.5
20260503225319 26 224 8.0 19.3 0.00 0.00 0.00 34 1011.4
20260503225225 26 243 3.2 9.7 0.00 0.00 0.00 34 1011.4
20260503224224 26 291 3.2 8.0 0.00 0.00 0.00 33 1011.5
20260503223818 26 275 8.0 19.3 0.00 0.00 0.00 33 1011.5
20260503223224 26 276 9.7 16.1 0.00 0.00 0.00 33 1011.6
20260503222320 26 235 4.8 16.1 0.00 0.00 0.00 33 1011.7
20260503222224 26 258 1.6 3.2 0.00 0.00 0.00 33 1011.7
20260503221224 26 261 4.8 11.3 0.00 0.00 0.00 33 1011.7
20260503220817 26 248 8.0 14.5 0.00 0.00 0.00 33 1011.8
20260503220223 26 213 11.3 20.9 0.00 0.00 0.00 32 1011.8
20260503215318 26 223 12.9 20.9 0.00 0.00 0.00 32 1012.0
20260503215223 26 254 9.7 14.5 0.00 0.00 0.00 32 1012.2
20260503214223 26 293 4.8 19.3 0.00 0.00 0.00 32 1012.2
20260503213819 26 249 4.8 12.9 0.00 0.00 0.00 31 1012.2
20260503213225 26 267 9.7 14.5 0.00 0.00 0.00 32 1012.2
20260503212318 26 271 4.8 9.7 0.00 0.00 0.00 33 1012.2
20260503212224 26 294 3.2 12.9 0.00 0.00 0.00 33 1012.2
20260503211224 26 260 8.0 11.3 0.00 0.00 0.00 33 1012.5
20260503210817 26 224 9.7 12.9 0.00 0.00 0.00 33 1012.4
20260503210224 26 88 3.2 4.8 0.00 0.00 0.00 33 1012.5